Showing default

S-NET A, 43188

Orbit data source: Space-Track

S-NET A, 43188 is a payload satellite owned by TUB (DE) in SSO that was launched on Thu, 01 Feb 2018 UTC via a SOYUZ-2-1A launch vehicle from the Vostochny Cosmodrome (VOSTO). Payload-class satellites include a variety of spacecraft equipped with specific instruments for various scientific and technological missions. These include communications satellites like Starlink; space stations such as the ISS; scientific satellites like the Hubble; Earth observation satellites from companies like Planet Labs, Umbra, and HawkEye 360; GPS; miniature CubeSats for education and research; and military/defense satellites.

Loading next visibility...
Identifier
43188, 2018-014J
Orbit
SSO
Country
Flag of DEDE / GER
Related business
Manufacturer
TUB
Mission
Operational Amateur Com/Tech
Bus & Motor
TUBIX10, Unknown motor
Mass
8 kg wet, 8 kg dry
Launch date (UTC)
2018-02-01 (9 years ago)
Launch vehicle
SOYUZ-2-1A
Launch site
Vostochny Cosmodrome (VOSTO)
Object type
Payload
Rocket body
Debris
Shape & HBR
Box, 1.0 m
Radar Cross Section
0.086 m², Medium (>0.1 m² and < 1m²)

Expand to show TLE details & history
Last TLE update: 9 hours ago

TLE from 9 hours ago
0 S-NET A
1 43188U 18014J   26254.60429973  .00003761  00000-0  19155-3 0  9998
2 43188  97.5276 159.0647 0010356  77.4729 282.7662 15.17363167471864
Epoch: 2026-09-11T14:30Z
TLE epoch observation values (Epoch: 2026-09-11T14:30:11.496Z)
Latitude
-0.00006°
Longitude
-49.10846°
Altitude
515.326 km
Speed
7.607 km/s
True Right ascension
10h 36m 15s
True Declination
0° 00' 00"
Sunlit
Object was in daylight at epoch
Visualization orbit readout
Latitude
Unknown
Longitude
Unknown
Altitude
Unknown
Speed
Unknown
Apparent Right ascension
Unknown
Apparent Declination
Unknown
Sunlit
N/A
Visualization observer readout
Local Sidereal Time
15:48:30
Azimuth
Unknown
Elevation
Unknown
Doppler factor
Unknown
Orbital elements
Apogee altitude
517.922 km
Perigee altitude
503.654 km
Semi-major axis
6,888.925 km
Eccentricity
0.00104
Inclination
97.5276°
RAAN
159.0647°
Arg. of periapsis
77.4729°
True anomaly
282.65043°
Mean anomaly
282.7662°
Eccentric anomaly
282.70832°
Mean motion
3.79591 °/min
Orbital period
94.84 mins
BSTAR
0.00019155
Loading maneuver chart data...
Computing Atmospheric mass density...
Loading historical data...
Loading historical data...
Loading historical data...
Loading historical data...
Loading historical data...
Loading historical data...
Loading historical data...

Documentation

Showing up to 5 results
|